Lapse_Rate
-2.0 -2.1 -2.4 -2.4 -2.5 -3.0 -3.5 -4.0 -4.2 -4.8 -4.4 -4.7 -4.9 -5.1 -5.0 -4.5 -4.0 4.3 8.5 7.3 6.1 3.1 4.6 8.3 8.2 8.9 9.0 8.3 8.5 8.4 6.5 6.5 6.5 6.5 6.5 7.4 6.7 7.9 8.4 7.9 8.1 8.4 8.3 9.0 9.5
-2.1 -2.4 -2.5 -2.6 -2.6 -3.1 -3.8 -3.9 -4.4 -4.9 -5.2 -5.5 -5.6 -5.2 -5.2 -4.8 5.6 8.7 4.6 3.2 2.1 2.8 8.8 6.2 8.0 8.5 7.9 7.8 7.9 6.9 6.5 6.5 6.6 6.6 6.5 7.2 7.1 7.5 7.3 7.4 7.5 7.9 8.8 9.3 9.4
-2.3 -2.5 -2.6 -2.9 -2.9 -3.4 -4.0 -3.8 -4.5 -4.9 -5.3 -5.7 -5.8 -5.2 -5.3 -3.3 8.4 8.6 3.1 2.1 2.2 3.7 9.6 8.7 8.8 8.4 7.3 7.8 7.5 7.0 6.5 6.5 6.8 7.3 7.5 7.1 7.1 7.8 7.2 6.5 7.6 7.6 8.4 9.0 9.1
-2.5 -2.9 -2.9 -3.2 -3.3 -3.6 -4.2 -4.1 -4.7 -5.3 -5.6 -5.8 -6.1 -5.4 -5.3 3.8 6.5 9.0 1.8 1.8 2.7 8.9 9.4 8.8 8.2 7.5 6.8 6.5 7.5 6.6 7.0 7.1 7.1 7.6 7.4 6.9 7.6 7.2 7.4 7.4 8.3 8.6 8.9 9.0 8.9
-2.7 -3.1 -3.2 -3.3 -3.6 -3.9 -4.4 -4.7 -5.0 -5.4 -6.0 -6.3 -6.1 -5.4 0.7 7.8 8.0 5.2 1.8 2.7 6.5 9.6 9.0 8.5 7.6 7.5 6.5 6.9 7.1 6.5 6.8 7.3 7.6 7.6 7.5 7.6 7.0 7.0 7.3 8.2 8.8 8.9 8.8 8.8 9.0
-2.9 -3.2 -3.4 -3.6 -4.0 -4.3 -4.8 -5.0 -5.5 -5.8 -6.3 -6.3 -5.8 -5.8 5.3 7.0 8.5 6.8 7.4 7.1 9.5 9.3 8.9 8.3 8.0 8.2 7.4 7.0 6.7 7.2 7.2 7.3 7.5 7.3 7.5 6.8 7.0 7.3 7.6 8.5 8.4 8.5 8.6 8.9 8.8
-2.9 -3.2 -3.7 -3.9 -4.3 -4.7 -5.2 -5.4 -5.7 -5.9 -6.1 -5.7 -5.0 0.1 8.1 8.0 8.8 9.1 8.7 9.5 9.7 9.2 8.3 9.0 9.0 8.1 7.9 6.7 7.7 7.4 6.5 6.5 6.9 7.1 6.8 7.5 6.5 6.5 7.9 8.4 8.1 8.3 8.5 8.6 8.8
-3.3 -3.5 -3.9 -4.2 -4.6 -5.1 -5.4 -5.7 -5.9 -5.6 -5.5 -5.2 -4.7 3.7 7.9 7.5 9.5 9.7 9.9 9.5 9.8 9.9 9.4 9.4 9.3 8.4 7.7 8.0 7.2 6.5 6.5 6.5 6.5 6.9 7.1 7.0 6.5 6.7 8.1 8.0 7.8 8.1 8.3 8.5 8.7
-3.6 -4.0 -4.3 -4.6 -4.9 -5.4 -5.8 -6.1 -5.4 -4.7 -4.4 -4.4 2.6 6.2 7.6 5.7 9.1 9.8 9.9 9.0 9.2 9.4 9.4 9.2 9.0 7.8 7.6 6.5 6.5 6.5 6.5 6.5 6.5 7.0 6.5 6.5 6.5 6.9 8.1 7.8 7.6 8.0 8.2 8.4 8.6
-3.8 -4.4 -4.7 -5.2 -5.5 -5.7 -6.1 -5.9 -4.4 -3.8 -0.4 2.1 5.2 7.9 8.4 8.1 9.2 9.4 9.9 9.4 8.5 8.7 8.3 8.1 7.4 6.5 6.5 6.5 6.5 6.5 6.5 6.5 6.5 6.5 6.5 6.5 6.5 6.6 7.7 7.7 7.6 7.9 8.1 8.3 8.5
-3.9 -4.8 -5.3 -5.7 -6.0 -6.4 -3.2 4.4 7.4 8.0 7.4 7.8 8.0 7.8 8.4 9.3 9.6 9.1 9.5 9.1 8.7 7.9 6.5 7.0 6.5 6.5 6.5 6.5 6.5 6.5 6.5 6.5 6.5 6.5 6.5 6.5 6.5 6.5 7.3 7.6 7.4 7.7 8.0 8.2 8.4
-4.1 -5.1 -5.6 -6.1 -6.7 -6.9 -0.8 8.7 7.9 8.2 7.2 8.4 8.4 8.4 9.0 9.2 7.9 8.7 9.5 7.8 7.4 6.5 6.7 6.5 6.5 6.5 6.5 6.5 6.5 6.5 6.5 6.5 6.5 6.5 6.5 6.5 6.5 6.5 6.8 7.2 7.6 7.7 7.9 8.2 8.5
-4.5 -5.2 -5.9 -6.5 -7.0 -3.5 7.2 8.4 6.7 7.0 7.2 7.6 8.4 8.2 8.5 8.8 7.7 8.0 8.8 8.0 6.8 6.5 6.5 6.5 6.5 6.7 6.5 6.5 6.5 6.5 6.5 6.5 6.5 6.5 6.5 6.5 6.5 6.5 6.5 7.3 7.6 8.0 8.1 8.4 8.4
-5.0 -5.7 -6.4 -7.3 -2.7 6.4 8.6 6.1 6.0 6.3 6.5 6.5 7.0 8.0 8.5 8.4 7.1 8.9 9.1 8.0 6.9 6.5 6.5 6.5 6.7 6.5 6.5 6.5 6.5 6.5 6.5 6.5 6.5 6.5 6.5 6.5 6.5 6.5 6.5 6.5 6.8 7.5 8.0 8.2 8.4
-5.8 -6.5 -6.8 -7.8 4.8 8.2 6.7 6.2 6.4 7.7 6.5 6.5 6.9 8.8 8.6 7.5 7.7 7.8 9.2 8.2 6.5 6.5 6.5 6.5 6.5 6.5 6.5 6.5 6.5 6.5 6.5 6.5 6.5 6.5 6.5 6.5 6.5 6.5 6.5 6.5 6.5 7.1 7.7 8.1 8.4
-6.9 -7.4 -7.2 -2.6 2.2 6.3 5.5 6.1 7.3 6.5 6.5 6.5 7.0 6.6 6.7 7.3 7.2 7.8 7.9 8.5 7.9 6.5 6.5 6.5 7.3 6.6 6.5 6.5 6.5 6.5 6.5 6.5 6.5 6.5 6.5 6.5 6.5 6.5 6.5 6.5 6.5 7.0 7.5 7.9 8.2
-7.4 -7.8 -6.0 1.0 8.6 5.0 5.8 8.4 6.5 6.5 6.5 6.5 6.5 6.5 6.5 6.5 6.5 6.6 6.5 6.5 6.5 6.5 6.5 6.5 6.5 6.6 6.9 6.5 6.5 6.5 6.5 6.5 6.5 6.5 6.5 6.5 6.5 6.5 6.5 6.5 6.6 6.7 7.3 7.9 8.4
-7.4 -7.2 -3.5 2.5 4.3 4.9 7.9 6.7 6.5 6.5 6.5 6.5 6.5 6.5 6.5 6.5 6.5 6.5 6.5 6.5 6.5 6.5 6.5 6.5 6.5 6.5 6.5 6.5 6.5 6.5 6.5 6.5 6.5 6.5 6.5 6.5 6.5 6.5 6.5 7.1 7.4 7.5 7.7 7.9 8.2
-6.3 4.3 7.4 6.3 4.4 5.7 8.1 6.5 6.5 6.5 6.5 6.5 6.5 6.5 6.5 6.5 6.5 6.5 6.5 6.5 6.5 6.5 6.5 6.5 6.5 6.5 6.5 6.5 6.5 6.5 6.5 6.5 6.5 6.5 6.5 6.5 6.5 6.5 6.5 6.5 7.0 7.2 7.6 7.7 7.8
7.2 9.3 8.8 6.7 6.3 8.5 6.8 6.5 6.5 6.7 6.7 6.5 6.5 6.5 6.5 6.5 6.5 6.5 6.5 6.5 6.5 6.6 7.0 6.5 6.5 6.5 6.5 6.7 6.7 6.5 6.5 6.5 6.5 6.5 6.5 6.5 6.5 6.5 6.5 6.5 6.5 6.7 7.2 7.6 8.0
7.1 8.0 8.3 7.5 7.4 8.1 6.5 6.5 6.5 7.3 7.2 6.5 6.5 6.5 6.5 6.5 6.5 6.5 6.5 6.5 6.5 6.5 6.9 6.5 6.5 6.5 6.5 6.5 6.5 6.5 6.5 6.5 6.5 6.5 6.5 6.5 6.5 6.5 6.5 6.5 6.5 6.9 7.4 7.5 7.8
8.9 6.6 8.2 7.8 7.1 7.1 6.5 6.5 3.5 6.8 7.4 6.7 6.6 6.5 6.5 6.5 6.5 6.5 6.5 6.5 7.2 7.0 6.5 6.5 6.5 6.5 6.5 6.5 6.5 6.5 6.5 6.5 6.5 6.5 6.5 6.5 6.5 6.5 6.5 6.8 7.0 7.2 7.2 6.1 6.3
8.0 8.0 8.9 8.0 6.5 6.5 6.7 6.5 7.0 6.5 6.5 6.5 6.5 6.5 6.5 6.5 6.5 6.5 6.5 7.0 7.3 6.6 6.5 6.5 6.5 6.5 6.5 6.5 6.5 6.5 6.5 6.5 6.5 6.5 6.5 6.5 6.5 6.5 6.8 6.9 7.3 7.1 7.1 6.7 6.1
8.2 6.5 7.9 8.3 8.0 6.6 6.5 6.5 6.5 7.3 6.9 7.0 6.6 6.8 6.5 6.5 6.5 6.5 6.5 6.6 7.2 7.1 3.2 5.7 6.5 6.5 6.5 6.5 6.5 6.5 6.5 6.5 6.5 6.5 6.5 6.5 6.5 6.5 6.5 6.5 7.1 7.1 7.3 7.4 7.6
8.3 7.1 7.6 6.5 6.7 6.7 6.6 6.5 6.5 6.5 7.0 7.2 6.5 6.5 6.5 6.5 6.5 6.5 6.5 6.5 6.8 3.9 6.7 6.5 6.5 6.5 6.5 6.5 6.5 6.5 6.5 6.5 6.5 6.5 6.5 6.5 6.5 6.5 6.5 6.5 7.0 7.3 7.4 8.0 7.8
7.8 7.5 8.0 7.2 7.3 6.7 6.6 6.5 6.5 6.5 6.5 6.5 6.5 6.5 6.5 6.5 6.5 6.5 6.5 6.5 6.5 6.6 6.5 6.5 6.5 6.5 6.5 6.5 6.5 6.5 6.5 6.5 6.5 6.5 6.5 6.5 6.5 6.5 7.2 7.6 7.5 7.3 7.4 7.6 7.7
8.5 8.1 8.3 3.7 6.8 6.5 6.5 6.5 6.5 6.8 7.0 7.2 6.7 6.5 6.5 6.6 7.3 7.5 7.6 7.4 6.9 6.5 6.5 6.5 6.5 6.5 6.5 6.5 6.5 6.5 6.5 6.5 6.5 6.5 6.5 6.5 6.5 6.7 6.6 7.0 7.4 7.7 7.9 7.9 8.1
Wind_Speed
16 16 16 15 14 14 14 15 12 12 12 11 12 12 12 13 12 6 7 3 7 20 9 9 6 5 3 1 1 2 3 6 7 4 9 10 9 4 4 12 8 6 8 19 18
16 17 16 15 15 14 13 13 13 11 12 10 11 11 11 11 6 9 6 13 25 20 12 7 6 5 2 1 2 3 5 7 6 5 10 11 5 10 9 11 10 9 15 19 17
17 17 16 16 15 14 14 12 13 12 11 11 10 11 10 10 7 4 15 15 21 17 7 4 5 4 2 3 2 2 8 5 4 6 10 10 7 5 12 9 11 15 20 20 16
16 16 16 16 15 15 15 12 12 12 11 9 10 11 9 5 1 5 17 18 15 11 7 2 1 4 1 2 3 4 5 3 5 8 10 8 8 9 1 5 8 17 21 19 18
17 16 17 16 16 15 15 14 12 10 11 9 9 9 6 6 4 8 16 18 15 8 5 3 3 6 5 2 1 1 7 10 10 7 9 8 9 6 5 8 15 19 18 18 16
17 17 17 16 16 15 15 14 12 11 9 9 8 5 5 5 2 14 16 15 9 7 2 2 5 7 5 3 4 3 12 13 10 10 8 9 9 2 6 11 15 17 16 15 15
18 18 18 18 17 16 15 14 13 11 9 9 6 4 6 6 1 14 15 10 6 8 3 6 5 7 3 5 2 11 14 13 9 8 4 7 8 3 13 14 15 15 14 13 13
20 20 19 18 17 16 16 16 14 11 9 8 6 6 3 3 8 14 12 8 5 5 6 2 4 3 3 4 7 9 10 9 8 9 6 7 9 9 14 15 15 15 14 13 14
21 20 18 17 16 16 16 18 10 5 4 6 6 6 7 5 12 13 10 8 6 2 3 1 4 2 5 8 8 7 5 2 7 8 5 10 3 9 14 14 14 15 14 14 14
21 19 18 16 15 15 17 9 3 7 4 6 4 5 6 8 12 11 10 11 3 4 5 4 1 1 3 8 6 5 5 3 3 7 7 8 10 8 12 14 14 14 15 15 15
22 19 17 16 14 14 11 4 5 5 7 5 7 5 12 13 13 12 11 11 4 5 5 2 7 4 4 8 3 7 4 5 2 2 7 8 8 6 12 15 14 14 16 16 16
22 18 17 16 14 8 5 4 6 5 4 2 1 4 11 17 10 13 12 11 9 8 6 4 5 3 3 3 6 3 6 4 3 3 8 6 10 8 11 16 16 16 16 18 18
22 19 16 15 12 3 3 2 1 5 4 6 3 8 12 10 12 17 15 7 9 8 9 3 3 0 4 5 7 8 6 5 10 4 5 7 14 6 12 15 15 15 15 18 19
20 17 15 14 5 3 3 1 6 4 6 10 10 8 8 7 7 17 17 8 6 8 5 5 3 5 2 3 5 2 4 4 6 6 3 2 2 8 8 14 17 18 17 17 18
19 14 11 7 5 3 4 5 3 4 5 9 9 4 10 13 12 14 17 14 12 6 6 6 7 5 7 6 4 7 3 1 2 4 6 10 6 7 7 8 13 17 19 18 18
19 12 6 4 3 2 5 2 4 6 2 8 8 12 14 13 7 10 13 13 8 10 10 9 1 5 5 4 1 3 4 4 3 5 9 6 5 5 4 4 3 7 13 17 17
19 8 7 2 3 4 3 4 5 5 3 7 12 12 17 11 8 11 16 18 12 10 13 14 13 11 9 5 5 9 10 8 6 8 5 5 5 7 6 2 1 4 7 11 18
18 8 5 3 4 5 5 5 5 3 2 3 6 11 13 10 14 9 12 15 19 12 10 6 11 16 14 16 10 11 13 6 10 12 6 7 4 1 3 3 3 1 4 7 12
11 4 3 4 2 3 6 6 2 1 1 2 8 12 11 7 6 12 12 12 12 14 15 8 11 6 6 3 7 8 9 15 14 18 11 13 9 10 11 7 2 3 6 6 9
2 5 4 3 4 5 6 2 1 2 3 4 8 5 14 12 12 10 13 3 9 7 12 12 14 13 6 4 5 11 8 7 11 15 19 11 11 9 7 8 4 1 5 6 6
4 2 4 5 4 5 6 1 1 1 3 3 2 5 6 5 12 11 6 6 3 5 7 11 11 14 7 11 14 9 12 12 10 10 11 13 8 9 3 3 2 4 5 5 5
3 2 3 4 4 1 3 1 1 2 2 3 2 1 4 5 7 8 8 2 3 2 6 6 7 11 16 6 4 12 18 16 12 11 11 10 12 6 6 7 5 6 9 8 8
2 3 2 4 2 3 3 3 2 4 2 4 3 2 1 4 4 3 3 5 3 3 2 1 6 10 14 11 9 10 12 14 17 16 14 14 11 5 4 7 7 10 7 8 8
3 2 3 3 1 3 1 2 3 1 2 2 2 3 5 4 1 3 6 4 3 4 3 1 12 12 13 17 5 11 9 10 14 12 16 16 12 11 6 6 9 9 9 9 8
4 3 3 1 4 3 3 2 2 3 1 3 4 6 5 5 5 5 4 5 7 7 3 6 14 15 17 18 13 14 14 12 14 16 15 14 9 8 6 7 10 11 7 11 9
3 3 1 1 2 5 3 1 4 1 3 5 7 3 4 6 5 6 5 7 8 4 7 5 12 10 16 17 12 15 10 11 11 11 10 10 4 3 8 12 12 11 10 11 11
3 1 4 3 2 4 2 4 2 5 3 2 5 5 7 3 6 7 8 8 9 9 12 8 10 8 15 7 10 12 15 7 5 6 8 9 9 8 10 10 11 13 13 12 13
Wind_Direction
345 346 348 349 345 339 339 333 344 336 336 337 330 329 327 325 308 212 233 93 143 162 193 149 206 187 222 203 225 249 187 117 127 144 129 147 134 109 102 135 159 142 154 140 144
341 342 344 346 342 338 337 334 333 332 332 332 326 324 320 324 249 235 120 143 140 165 167 165 177 189 211 192 170 277 100 82 78 83 138 157 145 122 143 143 146 147 120 139 154
339 340 342 343 340 336 332 332 327 326 327 323 320 315 313 305 230 156 131 153 154 176 155 130 243 254 253 228 104 58 58 33 70 87 137 135 136 133 146 162 162 162 152 156 163
340 339 340 339 335 334 327 328 323 320 319 316 310 309 306 238 157 77 142 147 156 181 174 192 178 258 288 92 59 210 70 69 98 120 127 137 126 144 190 52 147 156 156 161 171
339 338 337 337 331 330 325 322 319 316 309 307 297 308 273 206 55 123 132 139 166 201 193 201 276 313 30 37 133 17 93 99 102 119 122 125 120 96 80 119 137 148 161 168 174
339 337 334 336 330 326 321 317 314 308 300 289 285 290 243 184 58 145 147 160 171 189 158 41 319 325 313 33 320 110 106 112 117 129 137 142 142 160 120 138 146 158 171 177 179
333 335 335 331 326 324 319 315 308 297 282 268 259 256 245 64 83 154 158 167 176 190 251 242 310 286 321 138 140 134 123 119 133 152 137 156 170 142 151 159 162 174 177 180 182
326 329 331 329 326 322 318 312 304 287 270 254 222 240 70 9 144 154 161 162 194 215 259 265 285 295 322 135 173 175 177 161 150 175 157 231 124 146 166 173 174 180 179 183 189
330 335 335 330 327 322 315 313 296 252 200 184 217 251 104 159 160 155 168 156 138 191 158 164 284 348 182 196 172 210 141 201 164 208 149 230 24 144 175 186 181 182 184 188 187
331 337 334 330 328 321 312 291 85 165 184 215 266 227 164 175 151 163 177 162 157 153 158 204 309 331 221 212 207 176 189 165 173 183 223 228 258 149 190 197 192 189 189 192 195
334 337 332 332 326 316 299 193 195 168 207 345 111 78 134 130 149 178 168 183 214 206 175 237 232 214 250 197 342 274 241 237 191 144 257 255 262 246 193 209 201 197 193 199 202
335 335 331 330 324 309 245 264 37 0 171 165 175 122 140 159 162 171 181 194 202 203 108 195 268 124 150 247 266 264 221 219 104 246 258 267 269 251 215 214 210 205 201 200 201
332 332 329 327 327 246 260 53 14 322 249 144 159 160 166 195 172 174 194 201 226 218 207 248 150 345 272 270 261 235 271 118 272 155 255 282 262 254 207 222 215 211 208 208 206
330 328 327 322 291 143 155 104 288 245 215 147 185 170 171 208 197 173 196 207 211 250 233 289 137 242 330 274 290 303 43 263 240 238 285 278 302 199 224 209 216 216 210 208 210
327 322 317 298 337 208 59 322 170 228 211 140 149 106 159 196 126 189 197 213 250 187 240 113 187 196 306 26 315 32 328 90 188 248 276 179 263 112 174 222 226 221 218 217 209
325 314 281 188 227 5 321 212 237 230 169 155 154 177 176 201 168 141 189 226 269 260 231 267 225 287 16 350 277 130 152 163 191 281 249 85 279 136 79 104 117 203 227 227 224
332 312 202 266 107 335 292 222 220 253 144 158 179 183 197 184 171 182 192 200 221 220 234 226 243 235 228 205 192 224 228 255 229 210 284 99 263 309 339 194 239 277 274 254 226
337 160 189 318 310 304 221 225 242 52 170 121 206 198 204 187 215 191 203 213 218 264 278 251 226 207 197 226 251 224 282 284 296 292 312 154 265 105 48 107 117 84 345 315 235
322 166 145 50 31 263 230 218 13 124 32 204 177 200 194 203 250 213 226 235 238 210 252 265 255 257 226 224 252 220 238 265 272 250 266 280 253 245 213 218 176 26 39 40 26
249 132 78 345 311 237 232 312 147 356 318 220 228 234 214 206 206 209 203 210 233 242 249 263 265 248 200 225 206 265 334 236 223 259 273 266 264 262 253 188 146 84 62 57 58
235 155 59 331 264 221 234 101 215 97 291 285 211 201 246 195 225 210 216 119 222 172 239 252 246 267 180 219 248 190 228 235 282 291 294 288 283 28 24 50 147 94 89 85 81
291 145 42 298 203 271 220 344 14 228 169 235 271 326 223 208 206 218 219 257 138 204 217 203 275 262 265 300 291 272 282 272 259 253 239 273 277 55 77 82 80 90 78 63 60
18 70 106 268 246 163 127 187 264 243 199 198 174 291 210 165 202 235 197 116 162 251 326 143 254 278 258 213 215 241 245 253 262 265 264 282 287 103 98 110 94 100 88 87 80
283 187 127 76 30 320 346 68 172 142 199 241 142 204 187 189 209 187 209 167 193 268 9 277 270 273 278 298 331 291 270 254 268 263 262 259 257 157 150 149 121 111 120 117 114
355 61 14 49 93 4 321 319 249 166 188 223 185 247 222 226 225 232 235 245 221 142 234 274 270 274 274 273 281 272 280 269 254 265 282 298 317 60 159 177 146 138 161 130 129
6 334 192 46 299 283 168 82 312 36 278 182 256 195 214 258 288 318 296 276 283 179 262 236 269 278 273 271 262 265 241 244 245 259 263 270 253 102 112 119 146 152 165 146 148
42 117 289 119 266 261 48 348 329 322 186 310 318 251 229 18 342 328 301 295 284 284 284 274 277 256 271 259 239 236 232 229 278 263 308 292 48 129 140 156 165 168 180 169 164